Terug naar catalogus

DELTA 1 DEB

ActiefSSO
NORAD 7155·DEBRIS·🇺🇸 United States

Gelanceerd Nov 6, 1973 vanaf Vandenberg Space Force Base

Loading…

Volgende Passages (komende 24 uur)

TLE

VersSource: Space-Track

Epoch: Sep 14, 2026, 05:53 UTC

1 07155U 73086DU  26257.24543711  .00000113  00000-0  11568-2 0  9999
2 07155 102.3630 171.4257 0129418 353.9542 159.7271 12.40427388386916

Volg DELTA 1 DEB in realtime met AllMySat

Download on the App Store